Location: München
(48.1351°N, 11.5820°E)
Time: 16:29:29
(UTC+01:00)

ISS - Pass Details

Date: 25 January 2020
Orbit: 415 x 422 km, 51.6° (Epoch: 26 February)

Event Time Altitude Azimuth Distance (km) Brightness Sun altitude
Rises 19:08:58 0° 260° (W) 2,375 1.6 -21.1°
Reaches altitude 10° 19:11:06 10° 264° (W) 1,510 0.2 -21.4°
Enters shadow 19:14:05 55° 312° (NW) 517 -3.2 -21.9°
